Regional Weather Roundup
Issued by NWS Upton, NY

Current Version | Previous Version | Text Only | Print | Product List | Glossary Off
Versions: 1 2 3 4 5 6 7 8 9 10 11 12 13 14 15 16 17 18 19 20 21 22 23 24 25 26 27 28
000 ASUS41 KOKX 300808 RWROKX REGIONAL WEATHER ROUNDUP NATIONAL WEATHER SERVICE NEW YORK NY 400 AM EDT THU MAR 30 2017 NOTE: "FAIR" INDICATES FEW OR NO CLOUDS BELOW 12,000 FEET WITH NO SIGNIFICANT WEATHER AND/OR OBSTRUCTIONS TO VISIBILITY. NYZ071-072-176-178-NJZ106-104-300900- NEW YORK CITY METRO AREA CITY SKY/WX TMP DP RH WIND PRES REMARKS Central Park CLEAR 40 21 46 VRB3 30.24R Wall St Helipt SUNNY 43 23 45 VRB7 30.23R LaGuardia APRT CLEAR 42 23 46 N10 30.22R Kennedy INTL PTCLDY 38 22 52 N9 30.23R WCI 31 Breezy Point N/A 39 N/A N/A N8G14 N/A WCI 34 Newark/Liberty CLEAR 37 23 56 N7 30.22R WCI 32 Teterboro CLEAR 37 23 56 NW3 30.22R $$ NYZ177-179-078>081-300900- LONG ISLAND NEW YORK CITY SKY/WX TMP DP RH WIND PRES REMARKS Jones Beach N/A 37 N/A N/A N8 N/A WCI 31 Matinecock PT NOT AVBL Farmingdale CLEAR 38 22 52 NW3 30.21R MacArthur/ISP CLEAR 34 24 67 NW5 30.19R WCI 30 Shirley CLEAR 33 24 69 NW5 30.19S WCI 29 Westhampton CLEAR 25 19 78 N3 30.19F East Hampton N/A 30 22 71 NW3 30.17S Montauk N/A 39 26 59 NW10 30.17S WCI 32 $$ NYZ052-065-067-300900- HUDSON VALLEY CITY SKY/WX TMP DP RH WIND PRES REMARKS White Plains CLEAR 33 21 61 NW7 30.20R WCI 27 Newburgh CLEAR 30 27 86 W6 30.22R WCI 24 Montgomery CLEAR 28 24 85 CALM 30.21R Poughkeepsie CLEAR 28 23 81 CALM 30.21R Albany PTCLDY 30 21 69 N6 30.24R WCI 24 $$ NJZ001-105-106-008-010-013-015-019>022-104-300900- NEW JERSEY CITY SKY/WX TMP DP RH WIND PRES REMARKS Newark/Liberty CLEAR 37 23 56 N7 30.22R WCI 32 Teterboro CLEAR 37 23 56 NW3 30.22R Caldwell CLEAR 33 25 72 CALM 30.24R Somerville CLEAR 31 26 82 CALM 30.22R Linden NOT AVBL Sussex CLEAR 29 25 85 CALM 30.23R Andover N/A 29 25 85 CALM 30.23R Trenton CLOUDY 36 24 62 N6 30.22R WCI 31 Millville CLEAR 35 27 72 E6 30.22R WCI 30 Atlantic City CLEAR 34 26 72 N6 30.21R WCI 29 Wrightstown CLOUDY 34 24 66 N9 30.19R WCI 27 Toms River PTCLDY 30 27 88 CALM 30.23R Belmar PTCLDY 38 24 57 N5 30.23R WCI 34 $$ PAZ047>061-062-071-300900- EASTERN PENNSYLVANIA CITY SKY/WX TMP DP RH WIND PRES REMARKS Philadelphia CLOUDY 41 24 51 NE12 30.22R Allentown CLOUDY 36 22 56 N3 30.23S Scranton CLOUDY 29 23 78 CALM 30.23R $$ CTZ002-004>006-009-010-012-RIZ004-006-007-MAZ004-011-015-300900- SOUTHERN NEW ENGLAND IN CT CITY SKY/WX TMP DP RH WIND PRES REMARKS Bradley INTL CLEAR 33 21 61 NW6 30.18S WCI 28 Hartford CLEAR 35 21 56 NW5 30.19S WCI 31 Danbury CLEAR 28 24 85 SW3 30.21R Wtrbury/Oxford CLEAR 32 18 55 NW5 30.18R WCI 27 Bridgeport CLEAR 36 22 56 NW5 30.20S WCI 32 Meriden CLEAR 29 23 78 CALM 30.19S New Haven CLEAR 36 21 54 NW6 30.19S WCI 31 Chester NOT AVBL Groton PTCLDY 33 22 63 W7 30.17S WCI 27 Wilimantic MOCLDY 29 24 82 CALM 30.18S IN RI CITY SKY/WX TMP DP RH WIND PRES REMARKS Providence CLEAR 36 22 56 NW9 30.15S WCI 29 Block Island CLEAR 36 25 64 NW9 30.15 WCI 29 Westerly CLEAR 36 23 59 NW6 30.16F WCI 31 IN MA CITY SKY/WX TMP DP RH WIND PRES REMARKS Boston PTCLDY 35 23 61 NW14 30.13F WCI 26 Worcester PTCLDY 31 20 63 NW7 30.12S WCI 24 Westfield CLEAR 31 22 69 N3 30.18R Provincetown CLEAR 38 27 64 N16G24 30.11F WCI 29 Nantucket CLEAR 37 28 70 N15 30.09F WCI 28 $$ ANZ330-335-338-340-345-350-353-355-300900- COASTAL MARINE OBSERVATIONS STATION/POSITION TIME SKY/WX TEMP WIND PRES VSBY WAVE AIR SEA DIR/SP/G HT/PER (UTC) (F) (DEG/KT/KT) (MB) (MI) (FT/S) NY HARB ENTRANCE 0650 42 42 10/ 12/ 12 1022.9 2/11 20 S FIRE ISLAND 0750 41 41 10/ 12/ 14 1022.0 4/ 7 GREAT SOUTH BAY NOT AVBL 23 SSW MONTAUK P 0650 40 42 1021.9 4/ 4 15 E BARNEGAT LI 0730 44 N/A 4/17 HUDSON CANYON 0650 43 43 20/ 19/ 23 1021.2 5/ 5 KINGS POINT 0748 39 40 1023.2 EXECUTION ROCKS NOT AVBL CENTRAL LI SOUND 0730 39 300/ 8/ 12 N/A 1 EASTERN LI SOUND NOT AVBL ROBBINS REEF 0748 41 10/ 9/ 11 1023.6 $$ >>>>>>>>>>>>>>>>>>>>>>>>>>>> KEY <<<<<<<<<<<<<<<<<<<<<<<<<<< > < > SKY/WX - Sky Condition/Present Weather < > TMP - Temperature in Fahrenheit < > DP - Dew Point in Fahrenheit < > RH - Relative Humidity in Percent < > WIND - Direction (from) and Speed in MPH < > PRES - Mean Sea Level Pressure (inches of Hg) < > WCI - Wind Chill Index < > VSB - VISIBILITY IN MILES < > HX - HEAT INDEX < > TC - TEMPERATURE IN CELSIUS < > VRB - VARIABLE WIND DIRECTION < > < >>>>>>>>>>>>>>>>>>>>>>>>>>>> KEY <<<<<<<<<<<<<<<<<<<<<<<<<<<

USA.gov is the U.S. government's official web portal to all federal, state and local government web resources and services.